EHI
4 4 3 3 2 2 3 3 2 1 1 1 4 7 9 8 3 2 3 2 0 0 0 0 0 0 0 0 0 0 0 0 0 0 0 0 0 0
4 4 3 2 3 3 3 3 3 2 2 2 4 8 10 7 3 2 3 1 0 0 0 0 0 0 0 0 0 0 0 0 0 0 0 0 0 0
4 4 4 3 3 3 3 4 5 5 4 2 4 9 13 10 6 5 3 1 0 0 0 0 0 0 0 0 0 0 0 0 0 0 0 0 0 0
5 6 6 6 5 4 4 5 6 6 5 3 4 8 13 12 9 5 2 0 0 0 0 0 0 0 0 0 0 0 0 0 0 0 0 0 0 0
9 11 11 10 9 7 6 5 5 4 4 3 3 4 6 7 6 3 1 0 0 0 0 0 0 0 0 0 0 0 0 0 0 0 0 0 0 0
12 14 14 11 10 9 6 4 3 3 3 2 1 1 1 2 2 1 0 0 0 0 0 0 0 0 0 0 0 0 0 0 0 0 0 0 0 0
15 15 13 9 7 6 4 1 1 2 1 1 0 0 0 1 1 1 0 0 0 0 0 0 0 0 0 0 0 0 0 0 0 0 0 0 0 0
20 18 11 5 3 2 1 0 0 0 0 0 0 1 1 1 1 0 0 0 0 0 0 0 0 0 0 0 0 0 0 0 0 0 0 0 0 0
24 21 13 6 2 1 1 0 0 0 0 0 0 0 1 3 3 1 0 0 0 0 1 0 0 0 0 0 0 0 0 0 0 0 0 0 0 0
18 18 15 8 3 1 1 1 1 0 0 0 0 0 1 3 4 2 0 0 0 0 0 0 0 0 0 0 0 0 0 0 0 0 0 0 0 0
8 9 10 7 2 0 0 0 0 0 0 0 0 0 0 1 2 1 0 0 0 0 0 0 0 0 0 0 0 0 0 0 0 0 0 0 0 0
3 3 3 2 1 0 0 0 0 0 0 0 0 0 0 0 0 0 0 0 0 0 0 0 0 0 0 0 0 0 0 0 0 0 0 0 0 0
1 1 0 0 0 0 0 0 0 0 0 0 0 0 0 0 0 0 0 0 0 0 0 0 0 0 0 0 0 0 0 0 0 0 0 0 0 0
1 1 0 0 0 0 0 0 0 0 0 0 0 0 0 0 0 0 0 0 0 0 0 0 0 0 0 0 0 0 0 0 0 0 0 0 0 0
0 0 0 0 0 0 0 0 0 0 0 0 0 0 0 0 0 0 0 0 0 0 0 0 0 0 0 0 0 0 0 0 0 0 0 0 1 1
0 0 0 0 0 0 0 0 0 0 0 0 0 0 0 0 0 0 0 0 0 0 0 0 1 0 0 0 0 0 0 0 0 0 0 0 0 0
0 0 0 0 0 0 0 0 0 0 0 0 0 0 0 0 0 0 0 0 0 0 0 0 0 0 0 0 0 0 0 0 0 0 0 0 0 0
0 0 0 0 0 0 0 0 0 0 0 0 0 0 0 0 0 0 0 0 0 0 0 0 0 0 0 0 0 0 0 0 0 0 0 0 0 0
0 0 0 0 0 0 0 0 0 0 0 0 0 0 0 0 0 0 0 0 0 0 0 0 0 0 0 0 0 0 0 0 0 0 0 0 0 0
0 0 0 0 0 0 0 0 0 0 0 0 0 0 0 0 0 0 0 0 0 0 0 0 0 0 0 0 0 0 0 0 0 0 0 0 0 0
0 0 0 0 0 0 0 0 0 0 0 0 0 0 0 0 0 0 0 0 0 0 0 0 0 0 0 0 0 0 0 0 0 0 0 0 0 0
0 0 0 0 0 0 0 0 0 0 0 0 0 0 0 0 0 0 0 0 0 0 0 0 0 0 0 0 0 0 0 0 0 0 0 0 0 0
0 0 0 0 0 0 0 0 0 0 0 0 0 0 0 0 0 0 0 0 0 0 0 0 0 0 0 0 0 0 0 0 0 0 0 0 0 0
Wind_Speed
4 4 3 2 2 1 1 1 1 2 2 3 2 4 4 4 9 6 5 11 12 11 11 10 10 9 9 9 9 9 9 9 9 9 9 9 10 10
3 3 3 3 2 2 2 1 1 1 2 1 2 2 3 3 9 5 5 10 13 13 13 13 12 12 11 11 11 11 11 11 11 10 10 10 10 10
5 4 4 4 2 2 2 2 2 1 2 2 1 1 2 2 3 3 4 5 7 14 15 15 14 14 13 13 12 12 12 12 12 12 11 11 11 11
6 5 5 5 4 3 3 2 2 1 1 3 2 1 2 4 4 4 5 6 5 11 17 17 16 15 14 14 14 14 13 13 13 13 12 12 12 12
6 6 5 5 5 4 4 3 2 2 2 2 3 3 2 3 4 5 6 5 7 7 11 15 15 15 16 16 16 15 15 14 14 14 14 13 13 13
5 5 5 6 6 5 5 4 4 3 3 3 3 3 3 3 3 3 4 4 5 7 6 8 12 16 17 17 17 17 16 16 15 15 15 14 14 14
4 4 5 5 5 5 5 3 4 4 3 3 4 4 4 3 3 3 4 4 4 5 4 4 4 6 8 13 16 17 17 17 16 16 15 15 15 15
4 4 4 5 5 6 6 5 4 5 5 4 4 4 4 4 3 3 3 3 4 2 2 4 4 4 5 6 11 15 17 17 17 17 16 16 16 16
4 4 5 5 6 5 6 8 8 8 7 5 6 6 5 4 3 4 3 4 4 3 3 5 5 5 5 7 9 9 12 15 16 16 16 16 16 16
3 3 4 3 3 3 4 5 6 7 7 7 7 6 5 3 3 3 4 4 5 5 4 6 5 6 7 5 7 10 11 13 15 16 16 16 16 16
2 3 2 2 3 3 3 4 5 4 5 6 6 6 6 6 4 3 4 4 6 5 3 4 5 5 5 5 7 10 12 13 14 15 16 16 16 15
2 2 1 2 3 2 3 5 6 5 4 4 4 5 6 7 8 6 5 5 5 5 3 3 4 4 5 5 5 4 5 9 13 14 15 16 15 9
1 1 1 0 1 2 3 4 5 4 4 4 4 4 4 5 5 6 6 6 6 6 4 3 4 4 6 6 5 5 5 5 6 8 12 15 15 11
2 2 2 2 2 3 3 4 4 4 3 4 4 4 4 4 4 5 6 6 7 8 7 6 6 6 7 9 7 5 5 5 5 6 6 9 12 15
2 2 3 4 4 4 5 5 4 3 3 3 4 4 4 4 4 4 5 6 7 8 9 8 8 7 7 8 8 7 6 6 6 6 6 6 6 5
1 3 5 6 5 4 4 4 4 4 3 4 4 4 3 4 4 3 4 4 5 6 6 7 7 7 7 8 7 8 7 7 6 6 6 6 5 5
2 3 3 3 2 3 3 3 3 3 4 4 4 4 5 5 4 4 4 4 5 5 5 4 5 6 7 7 8 8 8 7 7 6 6 7 6 6
3 3 3 3 2 2 2 3 3 3 3 4 4 5 5 4 4 4 3 4 5 6 6 5 5 5 6 7 8 9 8 7 6 6 7 8 9 7
2 3 3 3 3 3 3 3 3 3 3 3 4 4 4 4 4 4 5 5 5 6 6 5 5 6 8 10 7 7 7 8 7 7 7 8 9 8
2 3 3 3 3 3 4 4 4 4 4 4 4 5 5 5 5 5 5 6 6 6 6 5 5 5 7 9 9 8 9 9 7 8 9 8 8 11
4 3 4 4 4 4 4 4 5 4 5 5 5 5 5 5 5 5 5 7 7 6 7 7 6 8 7 7 8 8 8 9 10 9 9 9 10 9
4 5 4 5 4 4 4 4 4 4 5 5 5 5 5 5 6 7 6 6 6 6 7 7 7 6 6 8 10 11 10 9 10 14 15 14 9 9
5 5 5 5 5 5 5 6 7 6 5 5 5 5 6 6 5 6 6 6 7 7 7 7 7 6 7 7 9 9 12 12 9 9 9 12 16 19
Wind_Direction
217 215 238 267 272 293 292 264 237 262 247 210 180 181 168 149 160 189 181 194 202 209 216 222 226 230 234 238 243 247 251 255 258 260 262 264 265 266
216 211 210 246 232 227 246 254 250 259 278 272 210 177 163 180 173 195 205 196 207 214 219 223 227 230 233 237 241 245 248 251 253 255 256 257 258 260
216 209 207 250 283 276 236 233 240 242 263 282 259 166 150 164 160 222 230 207 212 219 221 223 225 229 232 235 239 242 246 248 249 251 252 253 254 256
213 215 208 219 222 268 291 269 243 217 240 280 294 266 195 191 195 221 245 244 235 224 220 223 225 228 231 236 239 241 243 245 248 249 250 251 253 254
209 212 215 222 218 220 233 262 269 255 212 241 267 271 244 220 206 226 244 256 268 262 225 223 226 228 231 235 237 239 241 243 244 246 248 249 251 252
214 212 214 218 216 220 227 231 251 271 263 245 255 261 254 238 212 222 248 243 251 264 257 231 225 228 233 236 238 238 239 241 242 243 245 247 248 250
226 221 224 219 214 214 231 224 232 239 251 250 248 252 255 252 242 236 250 258 253 246 256 256 233 230 234 240 243 243 240 239 239 240 242 244 246 248
227 229 229 217 218 217 228 236 238 244 251 258 261 258 262 264 265 261 259 270 273 266 278 278 273 257 247 241 240 235 235 237 238 239 241 242 244 245
225 227 243 241 217 218 226 236 246 250 242 250 265 269 275 278 275 274 273 273 268 281 295 279 274 273 268 270 265 251 241 240 240 240 240 241 243 244
239 231 231 259 271 245 242 240 240 241 237 234 242 256 268 278 278 271 268 273 265 261 250 265 270 269 275 277 279 268 256 248 244 242 241 242 244 245
262 273 256 244 272 271 261 264 262 255 246 238 232 240 250 262 261 271 269 269 274 270 255 257 271 278 279 278 275 269 261 256 252 249 248 247 247 248
238 255 292 284 291 281 264 263 263 265 273 271 252 254 254 254 243 233 243 255 267 273 261 267 280 289 285 270 272 279 272 267 261 257 255 252 251 250
294 306 20 18 268 267 265 261 260 269 280 275 269 260 252 246 240 232 226 231 246 255 266 278 285 283 275 282 283 277 270 268 265 262 259 256 252 240
331 358 31 356 303 282 264 261 275 286 275 273 272 271 266 260 255 249 244 242 241 250 261 262 265 267 275 280 280 274 272 271 271 268 260 260 255 246
343 346 311 288 278 271 248 253 259 256 262 269 271 273 272 273 272 264 259 252 250 252 257 249 251 257 258 268 277 277 281 278 270 269 267 263 258 252
305 297 275 269 260 260 261 242 235 246 253 262 269 270 271 274 270 265 268 269 270 269 260 256 254 254 262 266 270 275 273 275 274 270 270 269 266 258
321 278 269 257 244 241 248 250 244 242 251 261 269 275 274 270 269 265 263 268 272 281 286 282 268 261 259 264 270 271 273 274 272 273 278 278 268 262
317 284 282 279 281 284 279 271 258 256 259 261 264 266 273 279 283 280 279 279 280 279 280 286 291 293 287 272 255 271 274 276 279 280 280 281 280 272
278 286 302 315 318 319 316 313 309 301 287 284 287 288 288 290 289 287 284 283 284 288 292 293 293 291 292 290 283 264 278 282 282 280 275 273 277 277
275 296 311 320 326 329 327 324 321 324 322 316 310 307 302 296 294 295 297 299 300 299 297 293 288 286 283 288 291 287 269 268 274 277 279 277 275 277
329 326 327 330 334 334 329 324 323 321 320 311 303 299 300 300 299 299 296 295 291 290 293 292 290 290 287 289 285 283 282 269 265 270 278 281 282 282
335 338 343 341 337 334 331 325 322 321 320 315 314 316 317 315 309 304 300 296 290 289 290 291 293 293 288 283 285 289 293 293 284 274 261 256 262 268
349 344 342 339 343 342 339 334 332 327 328 328 327 322 316 312 306 302 303 302 302 299 298 297 296 291 287 285 287 290 294 296 295 292 284 271 260 258